Time,TemperatureF,DewpointF,PressureIn,WindDirection,WindDirectionDegrees,WindSpeedMPH,WindSpeedGustMPH,Humidity,HourlyPrecipIn,Conditions,Clouds,dailyrainin,SoftwareType,DateUTC
2013-03-25 00:03:00,52.0,34.0,29.99,West,281,5.0,14.0,51,0.00,,,0.00,,2013-03-25 05:03:00,
2013-03-25 00:12:00,52.0,34.0,29.99,West,281,5.0,14.0,51,0.00,,,0.00,,2013-03-25 05:12:00,
2013-03-25 00:22:00,52.0,34.0,29.99,North,356,6.0,17.0,51,0.00,,,0.00,,2013-03-25 05:22:00,
2013-03-25 00:32:00,51.0,34.0,29.99,NNW,338,3.0,14.0,52,0.00,,,0.00,,2013-03-25 05:32:00,
2013-03-25 00:42:00,51.0,34.0,29.99,NNW,338,3.0,14.0,52,0.00,,,0.00,,2013-03-25 05:42:00,
2013-03-25 00:52:00,51.0,34.0,29.99,NNW,338,3.0,14.0,52,0.00,,,0.00,,2013-03-25 05:52:00,
2013-03-25 01:02:00,50.0,34.0,30.02,North,349,6.0,17.0,53,0.00,,,0.00,,2013-03-25 06:02:00,
2013-03-25 01:12:00,50.0,34.0,30.02,North,349,6.0,17.0,53,0.00,,,0.00,,2013-03-25 06:12:00,
2013-03-25 01:22:00,50.0,34.0,30.02,North,349,6.0,17.0,53,0.00,,,0.00,,2013-03-25 06:22:00,
2013-03-25 01:32:00,49.0,34.0,30.03,North,357,7.0,17.0,55,0.00,,,0.00,,2013-03-25 06:32:00,
2013-03-25 01:42:00,49.0,34.0,30.03,North,357,7.0,17.0,55,0.00,,,0.00,,2013-03-25 06:42:00,
2013-03-25 01:52:00,49.0,34.0,30.03,North,357,7.0,17.0,55,0.00,,,0.00,,2013-03-25 06:52:00,
2013-03-25 02:02:00,49.0,34.0,30.03,NW,313,6.0,12.0,55,0.00,,,0.00,,2013-03-25 07:02:00,
2013-03-25 02:12:00,49.0,34.0,30.03,NW,313,6.0,12.0,55,0.00,,,0.00,,2013-03-25 07:12:00,
2013-03-25 02:22:00,48.0,33.0,30.04,NNW,348,6.0,15.0,56,0.00,,,0.00,,2013-03-25 07:22:00,
2013-03-25 02:32:00,47.0,33.0,30.05,WNW,302,5.0,15.0,58,0.00,,,0.00,,2013-03-25 07:32:00,
2013-03-25 02:42:00,47.0,33.0,30.05,WNW,302,5.0,15.0,58,0.00,,,0.00,,2013-03-25 07:42:00,
2013-03-25 02:52:00,47.0,33.0,30.04,NNW,335,5.0,14.0,59,0.00,,,0.00,,2013-03-25 07:52:00,
2013-03-25 03:02:00,47.0,33.0,30.04,NNW,335,5.0,14.0,59,0.00,,,0.00,,2013-03-25 08:02:00,
2013-03-25 03:12:00,47.0,33.0,30.04,NNW,335,5.0,14.0,59,0.00,,,0.00,,2013-03-25 08:12:00,
2013-03-25 03:22:00,46.0,31.0,30.05,North,350,9.0,18.0,56,0.00,,,0.00,,2013-03-25 08:22:00,
2013-03-25 03:32:00,46.0,32.0,30.05,North,1,5.0,20.0,58,0.00,,,0.00,,2013-03-25 08:32:00,
2013-03-25 03:43:00,46.0,32.0,30.05,North,1,5.0,20.0,58,0.00,,,0.00,,2013-03-25 08:43:00,
2013-03-25 03:52:00,46.0,32.0,30.05,North,1,5.0,20.0,58,0.00,,,0.00,,2013-03-25 08:52:00,
2013-03-25 04:02:00,45.0,33.0,30.06,North,6,6.0,12.0,62,0.00,,,0.00,,2013-03-25 09:02:00,
2013-03-25 04:12:00,45.0,33.0,30.06,North,6,6.0,12.0,62,0.00,,,0.00,,2013-03-25 09:12:00,
2013-03-25 04:22:00,45.0,33.0,30.06,North,6,6.0,12.0,62,0.00,,,0.00,,2013-03-25 09:22:00,
2013-03-25 04:33:00,44.0,31.0,30.06,NNW,348,9.0,17.0,60,0.00,,,0.00,,2013-03-25 09:33:00,
2013-03-25 04:43:00,44.0,31.0,30.06,NNW,348,9.0,17.0,60,0.00,,,0.00,,2013-03-25 09:43:00,
2013-03-25 04:53:00,44.0,31.0,30.06,NNW,348,9.0,17.0,60,0.00,,,0.00,,2013-03-25 09:53:00,
2013-03-25 05:03:00,43.0,31.0,30.07,NNE,13,8.0,13.0,62,0.00,,,0.00,,2013-03-25 10:03:00,
2013-03-25 05:12:00,43.0,31.0,30.07,NNE,13,8.0,13.0,62,0.00,,,0.00,,2013-03-25 10:12:00,
2013-03-25 05:22:00,43.0,31.0,30.08,North,8,5.0,16.0,63,0.00,,,0.00,,2013-03-25 10:22:00,
2013-03-25 05:32:00,43.0,31.0,30.08,North,8,5.0,16.0,63,0.00,,,0.00,,2013-03-25 10:32:00,
2013-03-25 05:42:00,43.0,31.0,30.08,North,8,5.0,16.0,63,0.00,,,0.00,,2013-03-25 10:42:00,
2013-03-25 05:53:00,43.0,31.0,30.08,North,8,5.0,16.0,63,0.00,,,0.00,,2013-03-25 10:53:00,
2013-03-25 06:03:00,42.0,31.0,30.09,NNE,19,8.0,13.0,64,0.00,,,0.00,,2013-03-25 11:03:00,
2013-03-25 06:12:00,42.0,31.0,30.09,NNE,19,8.0,13.0,64,0.00,,,0.00,,2013-03-25 11:12:00,
2013-03-25 06:23:00,42.0,31.0,30.09,NNW,342,5.0,12.0,65,0.00,,,0.00,,2013-03-25 11:23:00,
2013-03-25 06:32:00,42.0,31.0,30.10,North,357,6.0,10.0,65,0.00,,,0.00,,2013-03-25 11:32:00,
2013-03-25 06:42:00,42.0,31.0,30.10,North,357,6.0,10.0,65,0.00,,,0.00,,2013-03-25 11:42:00,
2013-03-25 06:52:00,42.0,31.0,30.10,North,4,5.0,12.0,66,0.00,,,0.00,,2013-03-25 11:52:00,
2013-03-25 07:02:00,42.0,31.0,30.10,North,4,5.0,12.0,66,0.00,,,0.00,,2013-03-25 12:02:00,
2013-03-25 07:13:00,42.0,31.0,30.10,North,4,5.0,12.0,66,0.00,,,0.00,,2013-03-25 12:13:00,
2013-03-25 07:23:00,42.0,32.0,30.11,North,358,6.0,12.0,67,0.00,,,0.00,,2013-03-25 12:23:00,
2013-03-25 07:32:00,42.0,33.0,30.13,NNW,335,5.0,13.0,69,0.00,,,0.00,,2013-03-25 12:32:00,
2013-03-25 07:42:00,42.0,33.0,30.13,NNW,335,5.0,13.0,69,0.00,,,0.00,,2013-03-25 12:42:00,
2013-03-25 07:52:00,42.0,33.0,30.13,NNW,335,5.0,13.0,69,0.00,,,0.00,,2013-03-25 12:52:00,
2013-03-25 08:02:00,42.0,32.0,30.15,North,353,9.0,16.0,67,0.00,,,0.00,,2013-03-25 13:02:00,
2013-03-25 08:13:00,42.0,32.0,30.15,North,353,9.0,16.0,67,0.00,,,0.00,,2013-03-25 13:13:00,
2013-03-25 08:22:00,42.0,32.0,30.15,North,353,9.0,16.0,67,0.00,,,0.00,,2013-03-25 13:22:00,
2013-03-25 08:32:00,43.0,33.0,30.16,NNW,342,7.0,14.0,67,0.00,,,0.00,,2013-03-25 13:32:00,
2013-03-25 08:42:00,43.0,33.0,30.16,NNW,342,7.0,14.0,67,0.00,,,0.00,,2013-03-25 13:42:00,
2013-03-25 08:52:00,43.0,33.0,30.16,NNW,342,7.0,14.0,67,0.00,,,0.00,,2013-03-25 13:52:00,
2013-03-25 09:03:00,43.0,33.0,30.16,NNW,342,7.0,14.0,67,0.00,,,0.00,,2013-03-25 14:03:00,
2013-03-25 09:12:00,43.0,33.0,30.16,NNW,342,7.0,14.0,67,0.00,,,0.00,,2013-03-25 14:12:00,
2013-03-25 09:22:00,44.0,33.0,30.17,North,6,9.0,18.0,66,0.00,,,0.00,,2013-03-25 14:22:00,
2013-03-25 09:32:00,44.0,33.0,30.17,North,358,6.0,16.0,65,0.00,,,0.00,,2013-03-25 14:32:00,
2013-03-25 09:42:00,44.0,33.0,30.17,North,358,6.0,16.0,65,0.00,,,0.00,,2013-03-25 14:42:00,
2013-03-25 09:52:00,44.0,33.0,30.17,North,358,6.0,16.0,65,0.00,,,0.00,,2013-03-25 14:52:00,
2013-03-25 10:02:00,46.0,33.0,30.18,NW,309,6.0,12.0,61,0.00,,,0.00,,2013-03-25 15:02:00,
2013-03-25 10:12:00,46.0,33.0,30.18,NW,309,6.0,12.0,61,0.00,,,0.00,,2013-03-25 15:12:00,
2013-03-25 10:23:00,46.0,32.0,30.19,NNE,22,7.0,15.0,59,0.00,,,0.00,,2013-03-25 15:23:00,
2013-03-25 10:33:00,47.0,33.0,30.20,WNW,290,6.0,13.0,59,0.00,,,0.00,,2013-03-25 15:33:00,
2013-03-25 10:42:00,47.0,33.0,30.20,WNW,290,6.0,13.0,59,0.00,,,0.00,,2013-03-25 15:42:00,
2013-03-25 10:53:00,47.0,33.0,30.21,NW,308,7.0,13.0,57,0.00,,,0.00,,2013-03-25 15:53:00,
2013-03-25 11:03:00,47.0,31.0,30.21,NW,309,7.0,15.0,54,0.00,,,0.00,,2013-03-25 16:03:00,
2013-03-25 11:12:00,47.0,31.0,30.21,NW,309,7.0,15.0,54,0.00,,,0.00,,2013-03-25 16:12:00,
2013-03-25 11:23:00,47.0,31.0,30.21,NW,309,7.0,15.0,54,0.00,,,0.00,,2013-03-25 16:23:00,
2013-03-25 11:33:00,48.0,32.0,30.21,NW,322,5.0,13.0,53,0.00,,,0.00,,2013-03-25 16:33:00,
2013-03-25 11:43:00,48.0,32.0,30.21,NW,322,5.0,13.0,53,0.00,,,0.00,,2013-03-25 16:43:00,
2013-03-25 11:53:00,48.0,32.0,30.21,NW,322,5.0,13.0,53,0.00,,,0.00,,2013-03-25 16:53:00,
2013-03-25 12:02:00,49.0,32.0,30.20,NNW,335,6.0,15.0,51,0.00,,,0.00,,2013-03-25 17:02:00,
2013-03-25 12:12:00,49.0,32.0,30.20,NNW,335,6.0,15.0,51,0.00,,,0.00,,2013-03-25 17:12:00,
2013-03-25 12:23:00,49.0,32.0,30.20,NNW,335,6.0,15.0,51,0.00,,,0.00,,2013-03-25 17:23:00,
2013-03-25 12:33:00,51.0,31.0,30.20,West,273,6.0,17.0,47,0.00,,,0.00,,2013-03-25 17:33:00,
2013-03-25 12:42:00,51.0,31.0,30.20,West,273,6.0,17.0,47,0.00,,,0.00,,2013-03-25 17:42:00,
2013-03-25 12:53:00,51.0,31.0,30.20,West,273,6.0,17.0,47,0.00,,,0.00,,2013-03-25 17:53:00,
2013-03-25 13:03:00,52.0,31.0,30.19,WNW,291,6.0,20.0,44,0.00,,,0.00,,2013-03-25 18:03:00,
2013-03-25 13:12:00,52.0,31.0,30.19,WNW,291,6.0,20.0,44,0.00,,,0.00,,2013-03-25 18:12:00,
2013-03-25 13:23:00,53.0,31.0,30.18,NNE,15,6.0,20.0,42,0.00,,,0.00,,2013-03-25 18:23:00,
2013-03-25 13:33:00,54.0,29.0,30.18,WNW,293,6.0,15.0,38,0.00,,,0.00,,2013-03-25 18:33:00,
2013-03-25 13:42:00,54.0,29.0,30.18,WNW,293,6.0,15.0,38,0.00,,,0.00,,2013-03-25 18:42:00,
2013-03-25 13:52:00,54.0,29.0,30.17,NNE,30,7.0,14.0,38,0.00,,,0.00,,2013-03-25 18:52:00,
2013-03-25 14:03:00,56.0,27.0,30.16,NNW,340,9.0,17.0,32,0.00,,,0.00,,2013-03-25 19:03:00,
2013-03-25 14:12:00,56.0,27.0,30.16,NNW,340,9.0,17.0,32,0.00,,,0.00,,2013-03-25 19:12:00,
2013-03-25 14:23:00,55.0,26.0,30.15,NW,320,9.0,20.0,33,0.00,,,0.00,,2013-03-25 19:23:00,
2013-03-25 14:33:00,56.0,28.0,30.15,WNW,292,5.0,18.0,34,0.00,,,0.00,,2013-03-25 19:33:00,
2013-03-25 14:42:00,56.0,28.0,30.15,WNW,292,5.0,18.0,34,0.00,,,0.00,,2013-03-25 19:42:00,
2013-03-25 14:52:00,56.0,28.0,30.15,WNW,292,5.0,18.0,34,0.00,,,0.00,,2013-03-25 19:52:00,
2013-03-25 15:02:00,57.0,28.0,30.13,NNW,334,5.0,15.0,33,0.00,,,0.00,,2013-03-25 20:02:00,
2013-03-25 15:12:00,57.0,28.0,30.13,NNW,334,5.0,15.0,33,0.00,,,0.00,,2013-03-25 20:12:00,
2013-03-25 15:22:00,57.0,24.0,30.13,NNW,346,10.0,17.0,28,0.00,,,0.00,,2013-03-25 20:22:00,
2013-03-25 15:32:00,58.0,26.0,30.12,NW,322,9.0,17.0,29,0.00,,,0.00,,2013-03-25 20:32:00,
2013-03-25 15:42:00,58.0,26.0,30.12,NW,322,9.0,17.0,29,0.00,,,0.00,,2013-03-25 20:42:00,
2013-03-25 15:52:00,58.0,25.0,30.11,NNW,335,6.0,16.0,28,0.00,,,0.00,,2013-03-25 20:52:00,
2013-03-25 16:02:00,59.0,25.0,30.11,NW,304,7.0,13.0,27,0.00,,,0.00,,2013-03-25 21:02:00,
2013-03-25 16:12:00,59.0,25.0,30.11,NW,304,7.0,13.0,27,0.00,,,0.00,,2013-03-25 21:12:00,
2013-03-25 16:22:00,58.0,24.0,30.11,NNW,344,7.0,14.0,27,0.00,,,0.00,,2013-03-25 21:22:00,
2013-03-25 16:33:00,59.0,24.0,30.11,NNE,20,6.0,16.0,26,0.00,,,0.00,,2013-03-25 21:33:00,
2013-03-25 16:42:00,59.0,24.0,30.11,NNE,20,6.0,16.0,26,0.00,,,0.00,,2013-03-25 21:42:00,
2013-03-25 16:52:00,59.0,24.0,30.11,NNE,20,6.0,16.0,26,0.00,,,0.00,,2013-03-25 21:52:00,
2013-03-25 17:03:00,59.0,22.0,30.11,WNW,302,8.0,17.0,24,0.00,,,0.00,,2013-03-25 22:03:00,
2013-03-25 17:12:00,59.0,22.0,30.11,WNW,302,8.0,17.0,24,0.00,,,0.00,,2013-03-25 22:12:00,
2013-03-25 17:23:00,59.0,23.0,30.11,WNW,290,6.0,18.0,25,0.00,,,0.00,,2013-03-25 22:23:00,
2013-03-25 17:33:00,59.0,20.0,30.11,NNW,329,7.0,17.0,22,0.00,,,0.00,,2013-03-25 22:33:00,
2013-03-25 17:42:00,59.0,20.0,30.11,NNW,329,7.0,17.0,22,0.00,,,0.00,,2013-03-25 22:42:00,
2013-03-25 17:52:00,59.0,21.0,30.11,West,276,9.0,18.0,23,0.00,,,0.00,,2013-03-25 22:52:00,
2013-03-25 18:03:00,59.0,23.0,30.12,WNW,298,6.0,13.0,25,0.00,,,0.00,,2013-03-25 23:03:00,
2013-03-25 18:12:00,59.0,23.0,30.12,WNW,298,6.0,13.0,25,0.00,,,0.00,,2013-03-25 23:12:00,
2013-03-25 18:23:00,59.0,24.0,30.12,WNW,295,5.0,13.0,26,0.00,,,0.00,,2013-03-25 23:23:00,
2013-03-25 18:32:00,58.0,23.0,30.13,WNW,284,6.0,15.0,26,0.00,,,0.00,,2013-03-25 23:32:00,
2013-03-25 18:42:00,58.0,23.0,30.13,WNW,284,6.0,15.0,26,0.00,,,0.00,,2013-03-25 23:42:00,
2013-03-25 18:52:00,58.0,22.0,30.13,NW,311,6.0,13.0,25,0.00,,,0.00,,2013-03-25 23:52:00,
2013-03-25 19:02:00,57.0,22.0,30.14,WNW,299,6.0,16.0,26,0.00,,,0.00,,2013-03-26 00:02:00,
2013-03-25 19:12:00,57.0,22.0,30.14,WNW,299,6.0,16.0,26,0.00,,,0.00,,2013-03-26 00:12:00,
2013-03-25 19:22:00,57.0,22.0,30.14,WNW,299,6.0,16.0,26,0.00,,,0.00,,2013-03-26 00:22:00,
2013-03-25 19:32:00,56.0,23.0,30.15,NW,317,9.0,16.0,27,0.00,,,0.00,,2013-03-26 00:32:00,
2013-03-25 19:43:00,56.0,23.0,30.15,NW,317,9.0,16.0,27,0.00,,,0.00,,2013-03-26 00:43:00,
2013-03-25 19:52:00,56.0,23.0,30.15,WNW,283,5.0,12.0,28,0.00,,,0.00,,2013-03-26 00:52:00,
2013-03-25 20:02:00,56.0,23.0,30.16,WNW,303,5.0,14.0,28,0.00,,,0.00,,2013-03-26 01:02:00,
2013-03-25 20:12:00,56.0,23.0,30.16,WNW,303,5.0,14.0,28,0.00,,,0.00,,2013-03-26 01:12:00,
2013-03-25 20:22:00,55.0,23.0,30.16,WNW,294,5.0,12.0,29,0.00,,,0.00,,2013-03-26 01:22:00,
2013-03-25 20:32:00,54.0,26.0,30.17,WNW,295,2.0,3.0,33,0.00,,,0.00,,2013-03-26 01:32:00,
2013-03-25 20:42:00,54.0,26.0,30.17,WNW,295,2.0,3.0,33,0.00,,,0.00,,2013-03-26 01:42:00,
2013-03-25 20:52:00,54.0,27.0,30.18,WSW,242,0.0,3.0,35,0.00,,,0.00,,2013-03-26 01:52:00,
2013-03-25 21:02:00,53.0,27.0,30.19,West,277,1.0,5.0,36,0.00,,,0.00,,2013-03-26 02:02:00,
2013-03-25 21:12:00,53.0,27.0,30.19,West,277,1.0,5.0,36,0.00,,,0.00,,2013-03-26 02:12:00,
2013-03-25 21:22:00,52.0,27.0,30.19,WNW,287,2.0,5.0,37,0.00,,,0.00,,2013-03-26 02:22:00,
2013-03-25 21:32:00,52.0,27.0,30.19,West,277,1.0,3.0,38,0.00,,,0.00,,2013-03-26 02:32:00,
2013-03-25 21:42:00,52.0,27.0,30.19,West,277,1.0,3.0,38,0.00,,,0.00,,2013-03-26 02:42:00,
2013-03-25 21:52:00,51.0,27.0,30.20,West,280,1.0,3.0,39,0.00,,,0.00,,2013-03-26 02:52:00,
2013-03-25 22:02:00,51.0,28.0,30.21,WNW,285,1.0,2.0,41,0.00,,,0.00,,2013-03-26 03:02:00,
2013-03-25 22:12:00,51.0,28.0,30.21,WNW,285,1.0,2.0,41,0.00,,,0.00,,2013-03-26 03:12:00,
2013-03-25 22:22:00,50.0,28.0,30.21,WNW,289,1.0,2.0,42,0.00,,,0.00,,2013-03-26 03:22:00,
2013-03-25 22:33:00,50.0,28.0,30.22,WNW,292,1.0,3.0,42,0.00,,,0.00,,2013-03-26 03:33:00,
2013-03-25 22:42:00,50.0,28.0,30.22,WNW,292,1.0,3.0,42,0.00,,,0.00,,2013-03-26 03:42:00,
2013-03-25 22:52:00,50.0,28.0,30.22,WNW,293,1.0,2.0,43,0.00,,,0.00,,2013-03-26 03:52:00,
2013-03-25 23:03:00,49.0,27.0,30.23,West,280,0.0,3.0,43,0.00,,,0.00,,2013-03-26 04:03:00,
2013-03-25 23:12:00,49.0,27.0,30.23,West,280,0.0,3.0,43,0.00,,,0.00,,2013-03-26 04:12:00,
2013-03-25 23:23:00,49.0,28.0,30.23,WNW,300,1.0,3.0,44,0.00,,,0.00,,2013-03-26 04:23:00,
2013-03-25 23:32:00,49.0,29.0,30.23,West,277,0.0,1.0,46,0.00,,,0.00,,2013-03-26 04:32:00,
2013-03-25 23:43:00,49.0,29.0,30.23,West,277,0.0,1.0,46,0.00,,,0.00,,2013-03-26 04:43:00,
2013-03-25 23:52:00,48.0,30.0,30.23,West,277,0.0,0.0,50,0.00,,,0.00,,2013-03-26 04:52:00,